Satellite: NO-44
Catalog number: 26931
Epoch time:      10146.86611087
Element set:    0471
Inclination:      067.0520 deg
RA of node:       258.9050 deg
Eccentricity:    0.0005633
Arg of perigee:   261.8139 deg
Mean anomaly:     098.2302 deg
Mean motion:   14.29597924 rev/day
Decay rate:       -5.1e-07 rev/day^2
Epoch rev:           45170
Checksum:              297

Satellite: SO-50
Catalog number: 27607
Epoch time:      10146.73718044
Element set:    0184
Inclination:      064.5589 deg
RA of node:       061.6686 deg
Eccentricity:    0.0034500
Arg of perigee:   087.4105 deg
Mean anomaly:     273.0977 deg
Mean motion:   14.71541421 rev/day
Decay rate:       1.09e-06 rev/day^2
Epoch rev:           39922
Checksum:              303

Satellite: CO-55
Catalog number: 27844
Epoch time:      10146.54443029
Element set:    0855
Inclination:      098.7086 deg
RA of node:       155.8296 deg
Eccentricity:    0.0008855
Arg of perigee:   232.7736 deg
Mean anomaly:     127.2639 deg
Mean motion:   14.20708496 rev/day
Decay rate:        5.7e-07 rev/day^2
Epoch rev:           35801
Checksum:              337

Satellite: CO-57
Catalog number: 27848
Epoch time:      10146.50041911
Element set:    0805
Inclination:      098.7128 deg
RA of node:       154.8761 deg
Eccentricity:    0.0008763
Arg of perigee:   237.6902 deg
Mean anomaly:     122.3440 deg
Mean motion:   14.20500558 rev/day
Decay rate:        2.6e-07 rev/day^2
Epoch rev:           35796
Checksum:              302

Satellite: AO-51
Catalog number: 28375
Epoch time:      10147.52158719
Element set:     685
Inclination:      098.0618 deg
RA of node:       142.1965 deg
Eccentricity:    0.0083584
Arg of perigee:   159.3015 deg
Mean anomaly:     201.1591 deg
Mean motion:   14.40685632 rev/day
Decay rate:        2.8e-07 rev/day^2
Epoch rev:           31053
Checksum:              304

Satellite: GENESAT1
Catalog number: 29655
Epoch time:      10147.43874677
Element set:      72
Inclination:      040.0172 deg
RA of node:       163.9357 deg
Eccentricity:    0.0007899
Arg of perigee:   176.7222 deg
Mean anomaly:     183.3655 deg
Mean motion:   15.89355918 rev/day
Decay rate:     8.2105e-04 rev/day^2
Epoch rev:           19668
Checksum:              342

Satellite: CP3
Catalog number: 31129
Epoch time:      10146.78801620
Element set:     586
Inclination:      097.9431 deg
RA of node:       187.5016 deg
Eccentricity:    0.0100919
Arg of perigee:   300.7106 deg
Mean anomaly:     058.4169 deg
Mean motion:   14.52256444 rev/day
Decay rate:       -5.2e-07 rev/day^2
Epoch rev:           16475
Checksum:              291

Satellite: CO-65
Catalog number: 32785
Epoch time:      10147.09432964
Element set:     690
Inclination:      097.8984 deg
RA of node:       212.3111 deg
Eccentricity:    0.0015007
Arg of perigee:   358.1213 deg
Mean anomaly:     001.9951 deg
Mean motion:   14.81656591 rev/day
Decay rate:       4.87e-06 rev/day^2
Epoch rev:           11236
Checksum:              306

Satellite: KKS-1
Catalog number: 33493
Epoch time:      10147.85030078
Element set:     519
Inclination:      098.0828 deg
RA of node:       267.1703 deg
Eccentricity:    0.0019424
Arg of perigee:   203.2794 deg
Mean anomaly:     156.7539 deg
Mean motion:   14.80990181 rev/day
Decay rate:       3.93e-06 rev/day^2
Epoch rev:            7247
Checksum:              312

Satellite: SOHLA-1
Catalog number: 33496
Epoch time:      10146.71208624
Element set:    0115
Inclination:      098.0553 deg
RA of node:       256.0663 deg
Eccentricity:    0.0005449
Arg of perigee:   273.3957 deg
Mean anomaly:     086.6638 deg
Mean motion:   14.69494496 rev/day
Decay rate:        7.8e-07 rev/day^2
Epoch rev:           07172
Checksum:              327

/EX
SB KEPS @ AMSAT  $ORB10147.W
Orbital Elements  10147.WEATHER

HR AMSAT ORBITAL ELEMENTS FOR WEATHER SATELLITES
FROM WA5QGD FORT WORTH,TX May 27, 2010
Send Subscribe/unsubscribe to KEPS at http://www.amsat.org/mailman/listinfo/kep
BID: ORB10147.W
TO ALL RADIO AMATEURS BT

Satellite: NOAA-10
Catalog number: 16969
Epoch time:      10147.54463120
Element set:      78
Inclination:      098.6578 deg
RA of node:       176.7045 deg
Eccentricity:    0.0011231
Arg of perigee:   272.3869 deg
Mean anomaly:     087.6046 deg
Mean motion:   14.27416724 rev/day
Decay rate:       -4.2e-07 rev/day^2
Epoch rev:           23263
Checksum:              306

Satellite: NOAA-11
Catalog number: 19531
Epoch time:      10147.30877478
Element set:      90
Inclination:      098.7691 deg
RA of node:       236.6872 deg
Eccentricity:    0.0011047
Arg of perigee:   204.3247 deg
Mean anomaly:     155.7450 deg
Mean motion:   14.14926390 rev/day
Decay rate:        2.3e-07 rev/day^2
Epoch rev:           11818
Checksum:              297

Satellite: NOAA-12
Catalog number: 21263
Epoch time:      10147.50647509
Element set:     577
Inclination:      098.7647 deg
RA of node:       160.6682 deg
Eccentricity:    0.0011535
Arg of perigee:   224.0569 deg
Mean anomaly:     135.9698 deg
Mean motion:   14.25634182 rev/day
Decay rate:        2.4e-07 rev/day^2
Epoch rev:           98945
Checksum:              327

